Location: *
(0.1100°N, 5.5000°E)
Time: 18:15:53
(UTC+00:00)

Cosmos 1818 - Pass Details

Date: 05 December 2023
Orbit: 771 x 801 km, 65.0° (Epoch: 02 March)

Event Time Altitude Azimuth Distance (km) Brightness Sun altitude
Exits shadow 04:54:28 - 294° (WNW) 2,417 5.4 -7.9°
Reaches altitude 10° 04:54:41 10° 292° (WNW) 2,360 5.3 -7.8°
Maximum altitude 04:58:26 19° 248° (WSW) 1,808 5.0 -7.0°
Drops below altitude 10° 05:02:12 10° 204° (SSW) 2,354 6.0 -6.1°
Sets 05:05:18 0° 186° (S) 3,279 7.0 -5.4°
